Clermont County, Batavia, OH

7:23 PM EDT on August 17, 2019 (GMT -0400)
Clermont County, Batavia

Weather History for KI69 - July, 2019

Change the Weather History Date:

Monday, July 22, 2019

  Actual Average (KLUK) Record (KLUK)
Temperature  
Mean Temperature 70 °F -  
Max Temperature 76 °F 86 °F 100 °F (1999)
Min Temperature 65 °F 67 °F 33 °F (1996)
Cooling Degree Days 6    
Growing Degree Days 20 (Base 50)    
Moisture  
Dew Point 70 °F    
Average Humidity 96    
Maximum Humidity 99    
Minimum Humidity 86    
Precipitation  
Precipitation 0.46 in - - ()
Sea Level Pressure  
Sea Level Pressure 29.94 in    
Wind  
Wind Speed 5 mph (WNW)    
Max Wind Speed 14 mph    
Max Gust Speed 20 mph    
Visibility 9 miles    
Events Rain    
Averages and records for this station are not official NWS values.
T = Trace of Precipitation, MM = Missing Value Source: NWS Daily Summary

Daily Weather History Graph

Daily Weather History Graph

Search for Another Location

Airport or City:

Astronomy

Jul. 22, 2019 Rise Set
Actual Time 6:28 AM EDT 8:57 PM EDT
Civil Twilight 5:57 AM EDT 9:28 PM EDT
Nautical Twilight 5:19 AM EDT 10:06 PM EDT
Astronomical Twilight 4:37 AM EDT 10:48 PM EDT
Moon No Moon Rise 11:42 AM EDT (7/22)
Length of Visible Light 15h 30m
Length of Day
14h 28m
Waning Gibbous, 72% of the Moon is Illuminated
Jul 22
Waning Gibbous
Jul 24
Last Quarter
Jul 31
New
Aug 7
First Quarter
Aug 15
Full

Hourly Weather History & Observations

Time (EDT) Temp. Dew Point Humidity Pressure Visibility Wind Dir Wind Speed Gust Speed Precip Events Conditions
12:15 AM 75.2 °F 73.6 °F 95% 29.94 in 10.0 mi South 4.6 mph - N/A   Overcast
12:35 AM 75.2 °F 73.9 °F 96% 29.95 in 10.0 mi SSW 4.6 mph - N/A   Overcast
12:55 AM 75.0 °F 73.4 °F 95% 29.95 in 10.0 mi SW 10.4 mph - N/A   Overcast
1:18 AM 74.1 °F 72.7 °F 95% 29.94 in 10.0 mi SW 6.9 mph - N/A Rain Light Rain
1:37 AM 73.6 °F 72.7 °F 97% 29.93 in 7.0 mi Calm Calm - 0.03 in Rain Rain
1:55 AM 73.4 °F 72.5 °F 97% 29.92 in 10.0 mi SSW 5.8 mph - 0.05 in Rain Light Rain
2:15 AM 72.9 °F 72.5 °F 99% 29.91 in 10.0 mi Calm Calm - 0.01 in Rain Light Rain
2:35 AM 72.5 °F 72.1 °F 99% 29.90 in 10.0 mi Calm Calm - 0.01 in   Light Drizzle
2:58 AM 72.5 °F 72.0 °F 98% 29.91 in 10.0 mi SW 6.9 mph - 0.01 in   Mostly Cloudy
3:16 AM 72.1 °F 71.6 °F 98% 29.91 in 10.0 mi SW 9.2 mph - N/A   Scattered Clouds
3:35 AM 72.1 °F 71.6 °F 98% 29.90 in 10.0 mi West 5.8 mph - N/A   Scattered Clouds
3:55 AM 71.8 °F 71.1 °F 98% 29.91 in 10.0 mi Calm Calm - N/A   Scattered Clouds
4:15 AM 71.8 °F 71.2 °F 98% 29.90 in 10.0 mi Calm Calm - N/A   Scattered Clouds
4:38 AM 71.8 °F 71.2 °F 98% 29.90 in 10.0 mi WSW 5.8 mph - N/A   Mostly Cloudy
4:56 AM 71.8 °F 71.2 °F 98% 29.91 in 10.0 mi SW 6.9 mph - N/A   Mostly Cloudy
5:15 AM 71.8 °F 71.1 °F 98% 29.91 in 10.0 mi SW 6.9 mph - N/A   Mostly Cloudy
5:35 AM 71.6 °F 70.9 °F 98% 29.90 in 10.0 mi SW 4.6 mph - N/A   Mostly Cloudy
5:55 AM 71.6 °F 71.1 °F 98% 29.91 in 10.0 mi WSW 8.1 mph - N/A   Mostly Cloudy
6:18 AM 71.8 °F 71.1 °F 98% 29.91 in 10.0 mi SW 5.8 mph - N/A   Overcast
6:36 AM 71.6 °F 70.9 °F 98% 29.90 in 7.0 mi SW 5.8 mph - N/A   Mostly Cloudy
6:55 AM 71.6 °F 71.1 °F 98% 29.91 in 7.0 mi SW 6.9 mph - N/A   Overcast
7:15 AM 71.8 °F 71.2 °F 98% 29.92 in 7.0 mi WSW 5.8 mph - N/A   Overcast
7:16 AM 72.0 °F 71.2 °F 98% 29.92 in 7.0 mi WSW 6.9 mph - N/A   Overcast
7:35 AM 72.1 °F 71.4 °F 98% 29.92 in 7.0 mi West 4.6 mph - N/A   Overcast
7:58 AM 72.5 °F 71.1 °F 95% 29.92 in 7.0 mi WSW 4.6 mph - N/A   Overcast
8:16 AM 72.7 °F 71.6 °F 96% 29.92 in 7.0 mi WSW 4.6 mph - N/A   Overcast
8:35 AM 73.2 °F 71.8 °F 95% 29.92 in 7.0 mi WSW 5.8 mph - N/A   Overcast
8:55 AM 73.8 °F 72.1 °F 95% 29.92 in 10.0 mi WSW 5.8 mph - N/A   Overcast
9:15 AM 74.3 °F 72.1 °F 93% 29.93 in 10.0 mi West 4.6 mph - N/A   Overcast
9:38 AM 74.3 °F 72.0 °F 92% 29.92 in 10.0 mi West 3.5 mph - N/A   Overcast
9:56 AM 75.0 °F 71.8 °F 90% 29.92 in 10.0 mi West 6.9 mph - N/A   Overcast
10:15 AM 75.0 °F 71.8 °F 90% 29.93 in 10.0 mi West 5.8 mph - N/A   Overcast
10:35 AM 74.7 °F 72.0 °F 91% 29.92 in 10.0 mi West 4.6 mph - N/A   Overcast
10:55 AM 74.3 °F 72.0 °F 92% 29.92 in 10.0 mi NW 3.5 mph - N/A Rain Light Rain
11:00 AM 74.3 °F 72.1 °F 93% 29.92 in 10.0 mi West 4.6 mph - N/A Rain Light Rain
11:18 AM 74.8 °F 72.1 °F 91% 29.92 in 10.0 mi West 6.9 mph - N/A   Overcast
11:36 AM 75.4 °F 72.1 °F 90% 29.92 in 10.0 mi West 6.9 mph - N/A   Overcast
11:55 AM 76.8 °F 72.5 °F 86% 29.92 in 10.0 mi West 4.6 mph - N/A   Overcast
12:15 PM 75.9 °F 71.4 °F 86% 29.92 in 10.0 mi NW 8.1 mph - N/A Rain Rain
12:39 PM 71.6 °F 70.5 °F 96% 29.92 in 4.0 mi WNW 3.5 mph - 0.16 in Rain Rain
12:58 PM 72.3 °F 70.9 °F 95% 29.92 in 5.0 mi NW 5.8 mph - 0.16 in Rain Light Rain
1:16 PM 72.3 °F 71.1 °F 96% 29.92 in 5.0 mi NNW 9.2 mph - N/A   Overcast
1:35 PM 72.1 °F 71.4 °F 98% 29.92 in 5.0 mi North 6.9 mph - N/A Rain Light Rain
1:55 PM 72.0 °F 70.7 °F 96% 29.92 in 7.0 mi North 6.9 mph - N/A Rain Rain
2:19 PM 71.6 °F 70.0 °F 95% 29.92 in 7.0 mi North 6.9 mph - 0.01 in Rain Rain
2:37 PM 71.6 °F 70.2 °F 95% 29.92 in 10.0 mi North 8.1 mph - 0.01 in   Overcast
2:56 PM 71.1 °F 69.8 °F 96% 29.92 in 10.0 mi North 5.8 mph - 0.01 in   Overcast
3:15 PM 70.7 °F 69.4 °F 96% 29.92 in 5.0 mi North 6.9 mph - 0.01 in Rain Rain
3:35 PM 69.8 °F 68.9 °F 97% 29.93 in 4.0 mi North 8.1 mph - 0.08 in Rain Heavy Rain
3:59 PM 68.9 °F 68.2 °F 98% 29.94 in 5.0 mi North 13.8 mph 19.6 mph 0.17 in Rain Rain
4:17 PM 68.2 °F 67.3 °F 97% 29.95 in 7.0 mi North 5.8 mph - 0.03 in Rain Rain
4:35 PM 68.4 °F 67.5 °F 97% 29.96 in 10.0 mi North 6.9 mph - 0.04 in Rain Rain
4:55 PM 68.9 °F 68.0 °F 97% 29.94 in 10.0 mi NNE 4.6 mph - 0.05 in Rain Light Rain
5:15 PM 69.3 °F 68.7 °F 98% 29.94 in 10.0 mi North 5.8 mph - 0.01 in Rain Light Rain
5:39 PM 69.6 °F 68.9 °F 98% 29.94 in 10.0 mi North 4.6 mph - 0.01 in   Scattered Clouds
5:57 PM 69.8 °F 68.9 °F 97% 29.94 in 10.0 mi North 5.8 mph - 0.01 in Rain Light Rain
6:15 PM 70.7 °F 68.9 °F 94% 29.96 in 10.0 mi NNW 9.2 mph - N/A Rain Light Rain
6:35 PM 69.8 °F 68.2 °F 95% 29.96 in 10.0 mi North 6.9 mph - N/A   Mostly Cloudy
6:36 PM 69.8 °F 68.4 °F 95% 29.96 in 10.0 mi North 6.9 mph - N/A   Mostly Cloudy
6:55 PM 69.8 °F 68.4 °F 95% 29.96 in 10.0 mi NW 6.9 mph - N/A Rain Light Rain
7:19 PM 68.9 °F 66.6 °F 92% 29.97 in 10.0 mi NNW 6.9 mph - N/A Rain Light Rain
7:37 PM 68.9 °F 67.3 °F 95% 29.97 in 10.0 mi NNW 5.8 mph - N/A   Mostly Cloudy
7:55 PM 68.5 °F 66.9 °F 95% 29.98 in 10.0 mi NW 4.6 mph - N/A   Mostly Cloudy
8:15 PM 68.4 °F 67.1 °F 96% 29.98 in 10.0 mi NNW 5.8 mph - N/A   Mostly Cloudy
8:35 PM 68.4 °F 67.1 °F 96% 29.99 in 10.0 mi NW 5.8 mph - N/A   Scattered Clouds
8:59 PM 68.0 °F 67.1 °F 97% 29.99 in 10.0 mi NNW 4.6 mph - N/A   Mostly Cloudy
9:17 PM 67.6 °F 66.7 °F 97% 30.00 in 10.0 mi NNW 3.5 mph - N/A   Scattered Clouds
9:35 PM 67.3 °F 66.6 °F 98% 30.00 in 10.0 mi NNW 3.5 mph - N/A   Clear
9:55 PM 67.1 °F 66.6 °F 98% 30.00 in 10.0 mi Calm Calm - N/A   Clear
10:15 PM 66.7 °F 66.2 °F 98% 30.01 in 10.0 mi Calm Calm - N/A   Clear
10:39 PM 66.4 °F 66.2 °F 99% 30.01 in 7.0 mi Calm Calm - N/A   Clear
10:57 PM 66.4 °F 65.8 °F 98% 30.02 in 10.0 mi Calm Calm - N/A   Clear
11:15 PM 66.4 °F 65.7 °F 98% 30.02 in 10.0 mi Calm Calm - N/A   Clear
11:35 PM 65.8 °F 65.5 °F 99% 30.02 in 7.0 mi Calm Calm - N/A   Clear
11:55 PM 65.8 °F 65.7 °F 99% 30.02 in 7.0 mi Calm Calm - N/A   Scattered Clouds